Погода в Меллиехе

Мальта     35°57′25″N   14°21′40″E
темп.,
°C
ветер,
м/с
пор.,
м/с
влажн.,
%
обл.,
%
осадки,
мм/ч
давл.,
гПа
погр.,
м
13 апреля, вт
вт1323:00+15в578812 0.0 1019187
02:00+15всв3387100 0.0 101970
05:00+15ссв338697 0.0 101998
08:00+15ссз5686100 0.0 1020330
11:00+14сз897786 0.0 1021494
14:00+14сз101168100 0.0 1021595
17:00+14сз11147312 0.0 1019626
20:00+14сз1215740 0.0 1019554
14 апреля, ср
ср1423:00+14сз1013740 0.0 1020620
02:00+14сз1011765 0.0 1019477
05:00+14ссз896818 0.0 1019593
08:00+14ссз78705 0.0 1020726
11:00+14ссз66680 0.0 1021785
14:00+14ссз33674 0.0 1020589
17:00+14ссз11665 0.0 1019446
20:00+14всв11675 0.0 1019424
15 апреля, чт
чт1523:00+14вюв237237 0.0 1020277
02:00+13юв4477100 0.0 1019327
05:00+13юв3478100 0.0 1018300
08:00+14юв3376100 0.0 1019293
11:00+15ююв3470100 0.0 1019660
14:00+15юв3376100 0.0 1019572
17:00+15вюв3477100 0.1 1018492
20:00+14вюв8881100 0.3 1016619
16 апреля, пт
пт1623:00+14вюв897888 0.0 1017700
02:00+14вюв91078100 0.0 1014697
05:00+14в101277100 0.0 1013737
08:00+14в131682100 0.0 1012867
11:00+14в161980100 0.0 10101032
14:00+14в172180100 0.1 10081115
17:00+15в182182100 0.0 10041074
20:00+15в17208432 0.1 1003935
17 апреля, сб
сб1723:00+14всв14168498 0.1 10051024
02:00+14св141485100 0.3 1005848
05:00+14ссв141583100 0.4 1005797
08:00+14с897694 0.6 1008837
11:00+14ссз437290 0.0 1009558
14:00+14зсз017350 0.0 1010216
17:00+14зсз12712 0.0 1010366
20:00+15юз11721 0.0 1011384